Content
SEND FEEDBACK

Daily
Averages
Monthly
Summary
Canada

RICHMOND NATURE PARK, BRITISH COLUMBIA


Home > North America > Canada > British Columbia
Elevation: 10 feet     Latitude: 49 10N     Longitude: 123 05W

WEATHER
 
SELECT A DAY
Number of Records: 199,575;   Date Range: 1/1/95 - 12/16/14
 
SHARE

PRINT THIS DATA

[ ← Previous Day ]
WEATHER ALMANAC - JUNE 21, 2013
[ Next Day → ]
[ °C ]   °F
Weather ElementAverageHighLow
Temperature58.6 °F66.2 °F (5:00 pm)53 °F (5:00 am)
Dewpoint52.9 °F55.4 °F (3:00 pm)51.8 °F (2:00 am)
Humidity81.2 %100 % (1:00 am)56 % (5:00 pm)
Barometer30.14 in30.17 in (12:00 pm)30.09 in (1:00 am)
Wind Speed7.4 mph10.4 mph (6:00 am)
Weather ElementAverage
Visibility12.3 mi
Wind DirectionSE (131 °)

Weather ElementTotal
Precipitation---
Heating Degree Days5.4 (Base 65)
Growing Degree Days9.6 (Base 50)
Averaged from 30 records on June 21, 2013
WEATHER CONDITIONS BREAKOUT
WIND DIRECTION BREAKOUT
WEATHER BY HOUR - JUNE 21, 2013
[ °C ]   °F
Local TimeTemperatureDewpointHumidityBarometerVisibilityWind DirectionWind SpeedGust SpeedPrecipitationEventsConditions
1:00 AM53.6 °F53.6 °F100 %30.09 in10.0 miEast (100°)5.8 mphOvercast
1:23 AM53.6 °F53.6 °F100 %30.10 in3.0 miEast (100°)8.1 mphLight Drizzle
2:00 AM53.6 °F51.8 °F94 %30.10 in6.0 miEast (100°)8.1 mphLight Drizzle
3:00 AM53.6 °F53.6 °F100 %30.11 in3.0 miEast (90°)6.9 mphLight Drizzle
3:51 AM53.6 °F51.8 °F94 %30.10 in8.0 miEast (100°)8.1 mphOvercast
4:00 AM53.6 °F51.8 °F94 %30.11 in8.0 miEast (90°)8.1 mphOvercast
4:18 AM53.6 °F51.8 °F94 %30.10 in10.0 miEast (100°)9.2 mphOvercast
5:00 AM53.6 °F51.8 °F94 %30.11 in10.0 miEast (100°)9.2 mphOvercast
5:00 AM53.0 °F52.0 °F95 %30.11 in10.0 miEast (100°)8.1 mphPartly Cloudy
6:00 AM53.6 °F51.8 °F94 %30.12 in10.0 miEast (100°)10.4 mphOvercast
7:00 AM53.6 °F51.8 °F94 %30.14 in10.0 miEast (90°)9.2 mphOvercast
8:00 AM55.4 °F51.8 °F88 %30.15 in15.0 miESE (110°)8.1 mphOvercast
9:00 AM57.2 °F51.8 °F82 %30.16 in15.0 miESE (120°)10.4 mphOvercast
10:00 AM59.0 °F51.8 °F77 %30.16 in15.0 miESE (120°)10.4 mphOvercast
11:00 AM60.8 °F51.8 °F72 %30.16 in15.0 miESE (120°)4.6 mphOvercast
11:00 AM60.0 °F52.0 °F67 %30.16 in15.0 miESE (120°)4.6 mphOvercast
12:00 PM62.6 °F51.8 °F68 %30.17 in15.0 miSSE (160°)8.1 mphOvercast
1:00 PM62.6 °F51.8 °F68 %30.17 in15.0 miNorthMostly Cloudy
2:00 PM62.6 °F53.6 °F72 %30.17 in15.0 miESE (120°)5.8 mphMostly Cloudy
3:00 PM64.4 °F55.4 °F73 %30.17 in15.0 miSSW (210°)10.4 mphMostly Cloudy
4:00 PM64.4 °F55.4 °F73 %30.16 in15.0 miSW (220°)9.2 mphMostly Cloudy
5:00 PM66.2 °F53.6 °F64 %30.15 in15.0 miEast (100°)4.6 mphMostly Cloudy
5:00 PM66.0 °F54.0 °F56 %30.15 in15.0 miSSW (200°)5.8 mphMostly Cloudy
6:00 PM64.4 °F55.4 °F73 %30.14 in15.0 miWSW (250°)6.9 mphScattered Clouds
7:00 PM64.4 °F55.4 °F73 %30.14 in15.0 miSW (220°)9.2 mphMostly Cloudy
8:00 PM62.6 °F55.4 °F77 %30.14 in15.0 miSSW (200°)6.9 mphMostly Cloudy
9:00 PM60.8 °F53.6 °F77 %30.14 in15.0 miSSW (200°)4.6 mphMostly Cloudy
10:00 PM59.0 °F51.8 °F77 %30.14 in12.0 miSE (140°)3.5 mphMostly Cloudy
11:00 PM59.0 °F52.0 °F70 %30.14 in15.0 miSE (130°)4.6 mph
11:00 PM59.0 °F51.8 °F77 %30.14 in15.0 miESE (120°)4.6 mphMostly Cloudy
Hourly data recorded from CYVR, located miles away from Richmond Nature Park, British Columbia







STORIES FROM OUR PARTNERS